Wind_Speed
18 18 19 20 20 19 19 19 19 19 19 18 18 20 20 20 21 22 22 21 21 22 22 22 23 23 23 25 26 27 26 26 26 25 25 24 24 24 24 24 24 25 25
19 19 20 21 21 20 19 19 19 19 18 17 18 20 20 19 20 20 20 20 21 22 22 22 23 23 24 23 24 25 26 26 26 26 25 24 25 25 24 24 23 24 25
20 20 20 21 20 20 20 20 19 18 18 19 20 20 18 18 18 19 19 20 21 21 21 22 22 23 23 23 24 25 26 26 26 25 25 25 24 24 24 24 24 25 25
21 20 21 20 20 20 20 20 19 18 18 19 20 19 18 18 18 19 19 20 20 20 20 20 21 22 22 22 23 24 25 26 26 25 25 24 23 24 24 24 24 25 26
21 21 20 20 19 19 20 19 19 19 19 19 19 19 18 17 18 18 19 20 19 19 18 19 20 20 21 22 22 24 24 24 25 25 24 24 24 24 25 25 25 25 26
21 21 21 19 19 19 20 20 19 18 18 19 19 19 17 17 17 18 18 18 19 19 19 19 20 20 21 21 22 22 22 22 23 24 24 24 25 25 25 26 26 25 25
21 21 20 19 19 19 20 19 17 17 17 17 17 17 17 17 16 17 17 17 17 18 20 20 21 21 21 21 21 21 21 22 22 23 23 24 25 26 25 26 26 26 26
20 20 20 19 18 19 18 18 17 16 16 16 16 16 16 16 16 16 16 17 17 18 20 21 21 22 22 21 21 20 20 20 21 22 22 24 25 26 26 26 26 27 27
19 19 19 19 19 18 18 18 17 16 16 16 16 16 16 15 16 16 17 18 18 19 20 20 21 22 21 21 21 21 20 21 20 21 22 23 24 25 25 25 26 26 27
18 19 18 18 19 18 17 17 17 17 16 16 16 15 15 15 16 16 18 19 19 20 20 20 21 21 21 21 21 21 21 21 21 21 22 24 24 25 25 24 25 26 26
18 18 18 18 18 17 16 16 17 16 16 15 14 15 15 15 16 17 18 19 20 20 19 19 19 20 20 20 20 21 21 22 22 22 23 24 25 24 25 25 25 25 26
18 18 18 18 17 16 15 15 16 15 15 15 15 15 15 16 17 18 19 20 20 19 19 19 18 18 19 19 19 20 20 21 22 22 22 23 24 24 25 25 25 25 26
18 18 18 17 16 15 15 15 15 15 15 15 16 17 17 18 19 19 20 20 20 19 19 19 18 18 18 18 19 19 19 20 20 21 22 23 24 24 25 25 26 26 26
18 18 17 15 15 16 16 15 15 16 17 18 18 18 19 19 20 20 20 19 19 19 19 19 18 17 17 18 18 18 18 19 20 21 22 22 23 24 25 25 26 27 27
17 17 16 15 15 15 16 16 16 17 18 19 20 20 20 21 21 21 20 19 18 18 18 17 17 17 17 17 18 18 19 20 20 21 22 22 23 25 25 26 27 27 27
16 16 16 16 16 16 17 17 17 17 18 20 21 21 21 21 20 19 19 18 18 17 17 17 18 18 18 18 18 19 20 20 21 21 21 23 24 25 25 25 26 26 27
16 16 16 16 17 17 18 18 19 19 20 21 22 22 21 20 19 19 19 18 18 18 18 18 18 18 18 18 18 19 19 19 20 20 21 22 23 23 23 24 25 25 25
16 16 16 16 17 17 18 19 19 20 21 21 21 20 20 19 18 19 19 19 18 18 19 19 18 18 18 18 18 18 18 19 19 20 20 21 21 21 22 23 24 24 24
16 17 17 18 18 18 18 19 20 21 21 21 21 20 20 19 19 20 20 20 19 19 19 19 18 18 18 18 17 18 19 19 19 20 20 20 21 21 21 22 23 24 23
16 17 18 19 19 19 19 20 21 21 21 21 21 21 20 20 20 20 20 20 19 19 19 19 19 18 18 18 17 18 19 19 19 19 20 21 21 21 22 22 23 23 23
17 18 18 19 19 19 20 20 21 21 21 21 21 20 20 21 21 21 21 20 20 20 20 19 20 19 19 18 18 19 19 18 19 19 20 20 20 21 22 22 22 22 23
18 18 19 19 20 20 20 21 21 21 21 20 20 20 21 22 22 22 21 20 20 20 20 20 20 20 19 18 18 18 18 18 19 19 20 19 20 21 21 21 21 21 21
19 19 20 21 21 21 21 22 22 21 20 20 21 21 21 22 23 23 22 21 20 20 19 20 20 20 19 19 18 18 18 19 19 19 20 21 21 21 20 20 21 21 21
19 20 21 22 22 22 22 22 22 21 20 20 21 21 21 22 22 22 22 21 20 20 20 20 20 20 19 19 19 18 19 20 20 20 21 21 21 20 20 20 20 20 20
20 21 22 23 23 23 23 23 22 21 20 20 21 21 21 21 21 22 21 21 21 21 21 21 20 20 19 18 18 19 20 20 20 20 20 20 21 21 20 20 20 19 19
22 22 23 23 24 24 24 23 22 20 20 20 20 21 21 21 22 22 22 22 22 22 21 21 20 20 19 19 19 20 20 20 20 20 20 20 20 20 20 19 19 18 18
Wind_Direction
316 312 312 313 312 309 307 302 298 294 295 294 291 290 290 288 286 284 284 284 282 279 279 279 279 277 273 270 266 262 264 265 265 265 263 263 264 265 266 267 269 269 266
317 311 307 308 307 307 306 305 301 297 295 294 294 295 291 288 288 287 285 285 284 282 280 280 280 278 274 270 268 265 264 264 263 264 262 260 262 265 267 268 270 269 267
318 313 311 310 309 310 307 305 300 295 295 295 293 291 294 294 292 288 287 287 286 284 282 280 280 279 278 273 270 269 266 265 264 263 263 262 260 261 266 267 268 267 268
321 317 316 316 313 311 310 310 305 302 301 297 292 293 292 294 295 291 289 288 287 286 285 282 281 280 279 276 273 271 268 266 265 266 266 262 261 261 262 263 266 267 268
324 323 319 319 317 314 314 313 311 306 303 301 298 295 294 294 292 290 290 289 289 287 286 286 283 283 282 279 276 273 269 266 265 267 267 266 264 263 262 263 265 267 268
326 325 324 322 319 317 317 315 315 312 307 302 301 299 298 297 293 290 290 291 289 286 286 287 288 287 285 280 276 272 268 266 267 267 267 266 266 266 265 265 265 267 267
326 327 324 323 321 321 321 321 320 317 313 308 306 304 303 300 298 294 294 294 293 291 290 290 290 289 287 283 279 273 270 268 266 267 267 267 267 266 266 266 266 266 267
326 327 327 326 327 327 324 326 324 321 321 318 312 308 306 303 301 302 301 300 299 296 292 291 291 289 287 283 279 275 273 271 270 268 268 269 269 268 267 267 269 269 268
326 327 329 329 330 332 331 331 329 325 323 321 318 314 310 308 306 307 308 306 303 300 294 293 292 290 288 283 279 275 275 273 271 271 271 272 272 271 268 269 270 271 272
330 329 330 330 331 334 336 334 333 332 328 323 320 319 317 314 310 308 307 308 307 304 299 295 291 289 288 282 279 276 275 274 273 273 275 274 272 271 271 272 273 274 275
331 331 331 331 332 335 338 336 336 335 332 330 328 325 320 318 315 311 310 309 309 308 304 299 294 291 287 284 281 277 276 274 274 275 275 274 273 274 273 272 274 277 278
331 332 333 335 336 339 339 338 340 340 337 334 332 329 326 323 321 317 315 314 313 310 307 304 300 296 290 285 283 283 280 278 278 277 276 275 273 274 274 274 275 278 280
330 332 333 335 337 339 339 338 340 341 339 334 332 331 328 325 322 320 318 318 315 313 310 306 302 298 294 290 289 286 284 283 281 280 279 278 276 275 275 276 278 279 281
331 332 331 334 334 336 338 337 338 338 336 336 335 332 328 326 323 322 321 318 316 314 311 308 305 301 296 291 291 289 288 287 285 283 282 281 278 278 278 278 279 280 281
330 331 332 334 334 333 335 335 333 334 335 335 334 331 327 325 324 323 322 321 317 315 313 311 308 305 302 297 295 294 292 291 288 285 283 281 281 280 280 281 280 280 281
328 331 331 331 331 330 330 330 331 331 331 332 331 328 327 325 325 326 326 324 321 319 319 314 310 307 304 301 300 298 297 296 293 290 286 284 284 283 282 282 282 282 283
324 327 327 328 328 326 326 328 330 329 329 329 329 329 327 326 328 328 329 327 324 322 319 317 313 310 306 304 303 301 300 300 296 293 290 288 288 286 286 285 286 285 285
318 322 322 322 323 324 325 327 328 329 329 329 329 331 331 329 330 330 330 328 325 323 322 321 319 316 312 309 307 304 303 303 301 296 294 293 292 290 290 289 289 288 287
314 317 317 317 318 322 323 324 325 327 328 330 331 332 332 332 330 328 327 327 325 324 323 323 322 320 318 315 311 308 307 306 305 301 298 297 296 293 291 290 289 289 289
311 313 315 316 316 318 321 323 325 326 327 328 330 330 329 329 329 329 329 329 326 324 323 321 322 320 318 316 314 311 310 309 308 306 302 299 298 296 293 293 293 293 290
309 311 314 316 318 319 320 322 324 324 324 324 327 327 328 330 330 330 331 330 328 326 325 323 322 322 321 319 316 314 312 311 311 311 308 303 301 299 297 296 296 295 293
310 312 314 315 317 319 320 320 321 323 323 323 324 325 328 330 330 330 329 327 326 326 326 325 324 323 322 322 320 317 316 315 315 314 312 309 306 304 301 299 299 298 296
309 310 312 314 316 316 317 317 318 320 322 323 324 326 328 329 329 330 330 327 325 326 326 325 325 324 324 323 322 322 320 317 317 316 316 314 311 308 305 304 303 302 300
305 308 310 312 314 314 315 316 317 318 319 320 322 324 326 327 327 328 329 328 326 325 324 325 326 325 323 323 322 321 321 319 317 317 318 317 314 310 309 309 307 304 303
302 305 307 309 311 313 314 314 316 315 316 318 320 323 324 326 326 327 328 328 327 325 325 325 325 325 325 324 321 319 319 320 320 319 319 319 317 314 313 313 310 307 304
300 304 307 308 310 312 313 313 314 313 314 316 319 321 323 324 326 326 327 328 328 327 326 324 323 323 324 324 322 321 320 320 320 321 322 321 320 317 315 314 311 309 306
Height
5820 5817 5814 5812 5809 5807 5805 5803 5801 5800 5798 5797 5796 5795 5794 5792 5791 5790 5790 5789 5788 5788 5787 5786 5786 5785 5785 5785 5786 5786 5787 5787 5788 5789 5789 5790 5791 5791 5791 5791 5791 5791 5792
5817 5814 5811 5808 5806 5803 5801 5799 5797 5795 5793 5791 5790 5789 5788 5786 5785 5785 5784 5783 5782 5781 5781 5780 5780 5779 5779 5778 5779 5779 5780 5780 5781 5782 5783 5784 5785 5784 5785 5785 5785 5785 5785
5814 5811 5807 5804 5801 5799 5796 5794 5792 5790 5788 5786 5785 5783 5782 5781 5780 5779 5778 5778 5776 5774 5774 5773 5773 5773 5772 5772 5772 5772 5773 5774 5774 5774 5775 5776 5777 5778 5778 5778 5778 5778 5778
5811 5807 5804 5800 5797 5794 5792 5789 5787 5785 5783 5781 5779 5778 5777 5776 5775 5774 5773 5772 5770 5769 5768 5767 5767 5766 5766 5765 5766 5766 5766 5766 5767 5767 5768 5769 5770 5771 5772 5772 5771 5771 5771
5807 5804 5800 5797 5793 5790 5787 5784 5781 5780 5778 5776 5774 5773 5772 5771 5769 5768 5767 5766 5764 5763 5762 5762 5761 5760 5759 5759 5759 5759 5759 5760 5760 5761 5761 5762 5763 5763 5764 5765 5764 5764 5764
5804 5800 5797 5793 5790 5787 5784 5780 5778 5775 5773 5771 5770 5769 5767 5765 5764 5763 5762 5761 5759 5758 5757 5756 5755 5755 5754 5753 5753 5752 5752 5753 5754 5754 5754 5755 5755 5756 5757 5757 5757 5756 5756
5801 5797 5793 5790 5787 5783 5780 5777 5774 5771 5768 5766 5765 5764 5762 5761 5760 5758 5757 5756 5755 5753 5752 5751 5750 5749 5748 5747 5746 5746 5746 5746 5747 5747 5747 5748 5748 5748 5749 5749 5748 5748 5748
5798 5794 5791 5788 5784 5780 5777 5774 5771 5768 5766 5763 5762 5760 5758 5757 5756 5754 5753 5752 5750 5749 5747 5746 5744 5743 5742 5741 5740 5740 5740 5740 5740 5740 5740 5740 5740 5740 5741 5740 5740 5740 5740
5796 5793 5789 5785 5781 5778 5775 5771 5768 5766 5763 5761 5759 5757 5755 5754 5752 5751 5749 5747 5746 5744 5742 5740 5738 5737 5736 5735 5734 5734 5734 5734 5734 5734 5733 5733 5733 5733 5732 5732 5732 5732 5731
5794 5791 5787 5784 5780 5776 5773 5769 5766 5763 5760 5758 5756 5754 5753 5751 5749 5747 5745 5743 5741 5739 5736 5735 5733 5731 5730 5729 5728 5728 5728 5728 5728 5727 5727 5726 5726 5725 5724 5724 5723 5723 5722
5792 5789 5785 5782 5778 5774 5771 5768 5765 5762 5759 5757 5754 5752 5750 5748 5745 5743 5741 5739 5736 5734 5731 5729 5728 5726 5724 5723 5722 5722 5722 5721 5721 5720 5720 5719 5718 5717 5717 5716 5716 5715 5714
5790 5787 5783 5780 5776 5773 5770 5767 5764 5761 5758 5755 5752 5750 5747 5745 5743 5740 5737 5734 5732 5729 5726 5724 5722 5721 5719 5718 5717 5716 5715 5715 5714 5713 5713 5712 5711 5710 5710 5709 5708 5707 5706
5788 5785 5781 5778 5775 5772 5769 5766 5763 5760 5756 5753 5750 5748 5745 5742 5740 5737 5733 5730 5727 5724 5722 5720 5718 5716 5714 5713 5712 5711 5710 5709 5708 5707 5706 5705 5704 5704 5703 5702 5701 5699 5698
5786 5782 5779 5777 5774 5771 5768 5765 5762 5759 5755 5752 5748 5745 5742 5739 5736 5732 5729 5725 5722 5720 5717 5715 5713 5711 5709 5708 5706 5705 5704 5703 5702 5700 5699 5698 5697 5696 5696 5695 5693 5691 5690
5784 5781 5777 5775 5772 5769 5766 5763 5760 5757 5753 5750 5746 5743 5739 5735 5732 5728 5724 5721 5718 5715 5713 5711 5709 5707 5705 5703 5701 5700 5698 5697 5695 5694 5692 5691 5690 5689 5688 5687 5685 5684 5682
5781 5778 5775 5773 5770 5767 5764 5761 5758 5755 5751 5747 5744 5739 5736 5732 5728 5724 5721 5717 5714 5712 5709 5707 5704 5702 5700 5698 5696 5694 5693 5691 5689 5688 5686 5685 5684 5682 5681 5679 5678 5676 5674
5779 5776 5773 5770 5768 5765 5762 5759 5755 5752 5749 5745 5741 5736 5732 5729 5725 5721 5718 5715 5711 5708 5706 5703 5700 5698 5696 5694 5691 5690 5688 5686 5684 5682 5680 5679 5677 5675 5673 5672 5670 5668 5666
5776 5773 5771 5768 5765 5762 5759 5756 5753 5749 5746 5742 5738 5734 5730 5726 5722 5719 5715 5712 5708 5705 5702 5699 5696 5694 5691 5689 5687 5685 5683 5681 5679 5676 5674 5672 5670 5668 5666 5665 5663 5661 5659
5773 5771 5768 5765 5762 5759 5756 5753 5750 5746 5742 5739 5735 5731 5727 5723 5720 5716 5712 5709 5705 5702 5699 5696 5693 5690 5688 5685 5682 5680 5678 5676 5673 5671 5669 5666 5664 5662 5660 5658 5656 5654 5652
5770 5767 5765 5762 5759 5756 5753 5750 5746 5743 5739 5735 5732 5728 5724 5721 5717 5713 5709 5706 5702 5699 5696 5693 5690 5687 5684 5681 5678 5676 5673 5671 5668 5666 5663 5661 5659 5656 5654 5652 5650 5647 5645
5766 5764 5761 5759 5756 5753 5750 5746 5743 5740 5736 5732 5729 5725 5722 5718 5714 5710 5706 5702 5699 5695 5692 5689 5686 5683 5680 5677 5674 5671 5669 5666 5663 5661 5658 5655 5653 5650 5647 5645 5643 5640 5638
5762 5760 5758 5755 5752 5749 5746 5743 5740 5736 5733 5729 5726 5722 5719 5715 5711 5707 5703 5699 5695 5692 5688 5685 5682 5679 5676 5673 5670 5667 5664 5661 5659 5656 5653 5650 5647 5644 5641 5639 5636 5634 5631
5759 5756 5754 5751 5748 5745 5742 5739 5736 5732 5729 5726 5722 5719 5715 5711 5707 5703 5699 5695 5692 5688 5685 5682 5678 5675 5672 5669 5666 5663 5660 5657 5654 5651 5648 5644 5641 5638 5635 5633 5630 5627 5625
5755 5753 5750 5747 5744 5741 5738 5734 5731 5728 5724 5721 5718 5715 5711 5708 5704 5700 5696 5692 5688 5685 5681 5678 5674 5671 5668 5664 5662 5659 5656 5653 5650 5646 5643 5639 5636 5633 5630 5627 5624 5621 5619
5750 5748 5745 5742 5739 5736 5733 5730 5726 5723 5720 5717 5714 5711 5707 5704 5700 5696 5692 5688 5685 5681 5677 5674 5670 5667 5664 5661 5658 5654 5651 5648 5645 5641 5638 5634 5631 5627 5624 5621 5618 5616 5614
5745 5742 5739 5737 5734 5731 5728 5725 5721 5719 5716 5713 5710 5707 5703 5700 5696 5692 5689 5685 5681 5677 5674 5670 5666 5663 5660 5656 5653 5650 5647 5643 5640 5636 5633 5629 5626 5623 5620 5617 5614 5611 5609